Flag for Botswana Weather past 2 weeks in Francistown, Botswana

Now
70 °F

Sunny.


Feels Like: 70 °F
Forecast: 40 / 78 °F
Wind: 2 mph from North

Location: Francistown Airport

Current Time: Jul 31, 2014 at 12:18:18 PM

Latest Report: Jul 31, 2014 at 11:00 AM


Visibility: 10 mi

Pressure: 30.36 "Hg

Humidity: 40%

Dew point: 45 °F

Location of FrancistownLocation

Historic Weather in Francistown — Graph

°F

Francistown temperature yesterday

Maximum temperature yesterday: 72 °F (at 4:00 PM)
Minimum temperature yesterday: 52 °F (at 10:00 PM)
Average temperature yesterday: 59 °F

Past Weeks' High & Low Weather Summary

 TemperatureHumidityPressure
High84 °F (Jul 26, 2:00 PM)100% (Jul 21, 4:00 AM)30.48 "Hg (Jul 21, 4:00 AM)
Low30 °F (Jul 23, 7:00 AM)11% (Jul 26, 4:00 PM)30.04 "Hg (Jul 18, 3:00 PM)
Average58 °F51%30.26 "Hg
* Reported Jul 16 11:00 AM — Jul 31 11:00 AM, Francistown, Weather by CustomWeather, © 2014

Note: Actual official high and low records may vary slightly from our data, if they occured in-between our weather recording intervals... More about our weather records

Advertising

Francistown weather history for previous 24 hours

 ConditionsComfort  
Time TempWeatherWind HumidityBarometerVisibility
11:00 AM
Jul 31
70 °FSunny.2 mph40%30.36 "Hg10 mi
10:00 AM63 °FSunny.3 mph49%30.36 "Hg10 mi
9:00 AM50 °FSunny.2 mph76%30.36 "Hg10 mi
8:00 AM50 °FSunny.2 mph76%30.36 "Hg10 mi
7:00 AM41 °FSunny.3 mph87%30.36 "Hg10 mi
6:00 AM41 °FSunny.2 mph87%30.33 "Hg10 mi
4:00 AM45 °FClear.6 mph87%30.30 "Hg10 mi
3:00 AM46 °FClear.2 mph76%30.30 "Hg10 mi
1:00 AM48 °FClear.6 mph82%30.33 "Hg10 mi
12:00 AM48 °FClear.6 mph87%30.36 "Hg10 mi
11:00 PM
Jul 30
52 °FClear.6 mph77%30.39 "Hg10 mi
10:00 PM52 °FClear.6 mph77%30.36 "Hg10 mi
9:00 PM55 °FClear.6 mph67%30.36 "Hg10 mi
8:00 PM55 °FClear.7 mph67%30.33 "Hg10 mi
7:00 PM61 °FPassing clouds.7 mph59%30.33 "HgN/A
6:00 PM64 °FPassing clouds.9 mph52%30.33 "HgN/A
5:00 PM68 °FPassing clouds.13 mph49%30.33 "HgN/A
4:00 PM72 °FPassing clouds.9 mph44%30.33 "HgN/A
2:00 PM68 °FPassing clouds.8 mph49%30.36 "HgN/A
1:00 PM66 °FScattered clouds.16 mph52%30.39 "HgN/A
12:00 PM64 °FScattered clouds.15 mph56%30.42 "HgN/A
Weather by CustomWeather, © 2014

See weather overviewHow to use our weather pages